Location: Newark
(34.9500°N, 139.9667°E)
Time: 09:29:59
(UTC+00:00)

Transit 2A - Pass Details

Date: 09 December 2019
Orbit: 601 x 957 km, 66.7° (Epoch: 20 January)

Event Time Altitude Azimuth Distance (km) Brightness Sun altitude
Rises 20:40:31 0° 184° (S) 3,197 9.4 -11.3°
Reaches altitude 10° 20:43:10 10° 175° (S) 2,215 8.7 -10.8°
Maximum altitude 20:47:38 34° 112° (ESE) 1,127 7.7 -9.9°
Drops below altitude 10° 20:51:48 10° 47° (NE) 2,050 8.6 -9.1°
Sets 20:54:09 0° 38° (NE) 2,924 9.2 -8.7°
